Weather History for Lethbridge Airport, AB

Change the Weather History Date:

Saturday, January 12, 2013

  Actual Average Record
Temperature  
Mean Temperature -10 °F -  
Max Temperature 6 °F 30 °F 50 °F (2002)
Min Temperature -25 °F 9 °F -34 °F (1998)
Degree Days  
Heating Degree Days 74    
Moisture  
Dew Point 0 °F    
Average Humidity 75    
Maximum Humidity 92    
Minimum Humidity 51    
Precipitation  
Precipitation 0.00 in 0.02 in - ()
Sea Level Pressure  
Sea Level Pressure 30.27 in    
Wind  
Wind Speed 11 mph ()    
Max Wind Speed 21 mph    
Max Gust Speed 17 mph    
Visibility 13.4 miles    
Events Snow    
Averages and records for this station are not official NWS values.
T = Trace of Precipitation, MM = Missing Value Source: Averaged Metar Reports

Daily Weather History Graph

Daily Weather History Graph

Search for Another Location

Airport:

Trip Planner

Search our weather history database for the weather conditions in past years. The results will help you decide how hot, cold, wet, or windy it might be!

Date:

Astronomy

Jan. 12, 2013 Rise Set
Actual Time 8:24 AM MST 4:55 PM MST
Civil Twilight 7:47 AM MST 5:32 PM MST
Nautical Twilight 7:07 AM MST 6:12 PM MST
Astronomical Twilight 6:28 AM MST 6:51 PM MST
Moon 8:35 AM MST (1/12) 6:41 PM MST (1/12)
Length of Visible Light 9h 45m
Length of Day
8h 31m
New Moon, 1% of the Moon is Illuminated
Jan 12
New Moon
Jan 18
First Quarter
Jan 26
Full
Feb 3
Last Quarter
Feb 10
New

Hourly Weather History & Observations

Time (MST) Temp. Windchill Dew Point Humidity Pressure Visibility Wind Dir Wind Speed Gust Speed Precip Events Conditions
12:00 AM 6.8 °F -12.9 °F -0.4 °F 72% 30.16 in 9.0 mi SSW 19.6 mph - N/A   Clear
1:00 AM 6.8 °F -11.8 °F -0.4 °F 72% 30.16 in 9.0 mi SSW 17.3 mph - N/A   Clear
2:00 AM 5.0 °F -12.3 °F -2.2 °F 72% 30.17 in 9.0 mi SW 13.8 mph - N/A   Clear
3:00 AM 5.0 °F -15.7 °F -0.4 °F 78% 30.19 in 9.0 mi WNW 20.7 mph - N/A   Clear
4:00 AM 3.2 °F -14.6 °F -2.2 °F 78% 30.22 in 9.0 mi WNW 13.8 mph - N/A   Clear
5:00 AM -25 °F - -33 °F 51% 30.12 in - WNW 10.4 mph - -  
6:00 AM 10.4 °F -6.0 °F 3.2 °F 73% 30.25 in 15.0 mi NW 15.0 mph - N/A   Overcast
7:00 AM 12.2 °F -1.8 °F 3.2 °F 67% 30.27 in 15.0 mi WNW 11.5 mph - N/A   Overcast
7:47 AM 12.2 °F -0.2 °F 5.0 °F 73% 30.29 in 15.0 mi WNW 9.2 mph - N/A Snow Light Snow
8:00 AM 12.2 °F -0.2 °F 6.8 °F 79% 30.30 in 5.0 mi WNW 9.2 mph - N/A Snow Light Snow
8:19 AM 12.2 °F -1.0 °F 8.6 °F 85% 30.31 in 2.0 mi WNW 10.4 mph - N/A Snow Light Snow
8:43 AM 12.2 °F 0.7 °F 8.6 °F 85% 30.31 in 7.0 mi NW 8.1 mph - N/A Snow Light Snow
9:00 AM 14.0 °F 3.9 °F 8.6 °F 79% 30.31 in 15.0 mi WNW 6.9 mph - N/A Snow Light Snow
9:14 AM 14.0 °F 2.0 °F 8.6 °F 79% 30.31 in 20.0 mi WNW 9.2 mph - N/A   Mostly Cloudy
12:00 PM 15.8 °F 6.1 °F 8.6 °F 73% 30.31 in 20.0 mi WNW 6.9 mph - N/A   Scattered Clouds
12:31 PM 15.8 °F 3.4 °F 8.6 °F 73% 30.31 in 20.0 mi NW 10.4 mph 17.3 mph N/A   Partly Cloudy
1:00 PM 15.8 °F 4.2 °F 8.6 °F 73% 30.31 in 20.0 mi NW 9.2 mph - N/A   Scattered Clouds
2:00 PM 14.0 °F 2.0 °F 8.6 °F 79% 30.32 in 20.0 mi WNW 9.2 mph - N/A   Partly Cloudy
3:00 PM 10.4 °F -1.5 °F 5.0 °F 79% 30.34 in 30.0 mi WSW 8.1 mph - N/A   Partly Cloudy
4:00 PM 8.6 °F -3.7 °F 3.2 °F 79% 30.35 in 30.0 mi WSW 8.1 mph - N/A   Mostly Cloudy
5:00 PM -21 °F - -27 °F 58% 30.20 in - NE 3.5 mph - -  
5:00 PM 5.0 °F -10.8 °F -0.4 °F 78% 30.34 in 40.0 mi SW 11.5 mph - N/A   Scattered Clouds
6:00 PM -0.4 °F -16.7 °F -2.2 °F 92% 30.34 in 15.0 mi SW 10.4 mph - N/A   Mostly Cloudy
7:00 PM 6.8 °F -8.6 °F 1.4 °F 79% 30.31 in 15.0 mi SW 11.5 mph - N/A   Mostly Cloudy
8:00 PM 5.0 °F -11.6 °F -0.4 °F 78% 30.29 in 15.0 mi SW 12.7 mph - N/A   Mostly Cloudy
9:00 PM 6.8 °F -3.5 °F -0.4 °F 72% 30.28 in 15.0 mi West 5.8 mph - N/A   Partly Cloudy
10:00 PM 6.8 °F -3.5 °F 1.4 °F 79% 30.29 in 15.0 mi West 5.8 mph - N/A   Mostly Cloudy
11:00 PM -19 °F - -25 °F 59% 30.19 in - WNW 11.5 mph - -